DW6757 Weather Reports


Display with metric or nautical units.
time (UTC)temp
F
wind
direction
speed
MPH
gust
MPH
rain 1hr
in
rain 24hr
in
rain mn
in
humidity
%
barometer
mb
20260901172004 93 192 4.0 7.0 0.00 0.00 0.00 50 1015.7
20260901171525 94 156 3.0 7.0 0.00 0.00 0.00 50 1015.8
20260901171004 93 35 2.0 5.0 0.00 0.00 0.00 51 1015.8
20260901170504 93 99 2.0 8.0 0.00 0.00 0.00 52 1015.7
20260901170005 93 91 3.0 9.0 0.00 0.00 0.00 53 1015.7
20260901165505 92 114 3.0 9.0 0.00 0.00 0.00 53 1015.9
20260901165004 92 184 2.0 5.0 0.00 0.00 0.00 55 1016.0
20260901164504 91 194 3.0 9.0 0.00 0.00 0.00 55 1016.1
20260901164004 92 181 3.0 9.0 0.00 0.00 0.00 55 1016.2
20260901163504 91 178 3.0 7.0 0.00 0.00 0.00 56 1016.2
20260901163004 91 174 3.0 8.0 0.00 0.00 0.00 54 1016.2
20260901162504 92 137 3.0 8.0 0.00 0.00 0.00 54 1016.3
20260901162004 92 63 2.0 6.0 0.00 0.00 0.00 56 1016.3
20260901161525 91 7 2.0 4.0 0.00 0.00 0.00 59 1016.4
20260901161025 90 330 1.0 4.0 0.00 0.00 0.00 60 1016.4
20260901160504 89 264 2.0 5.0 0.00 0.00 0.00 62 1016.5
20260901160025 89 233 3.0 8.0 0.00 0.00 0.00 62 1016.4
20260901155525 89 207 3.0 8.0 0.00 0.00 0.00 63 1016.4
20260901155004 89 198 2.0 7.0 0.00 0.00 0.00 63 1016.4
20260901154504 88 172 2.0 5.0 0.00 0.00 0.00 65 1016.3
20260901154004 88 171 2.0 6.0 0.00 0.00 0.00 65 1016.3
20260901153504 88 196 2.0 6.0 0.00 0.00 0.00 65 1016.3
20260901153004 88 215 2.0 5.0 0.00 0.00 0.00 65 1016.2
20260901152505 87 257 1.0 6.0 0.00 0.00 0.00 70 1016.2
20260901152004 87 235 1.0 6.0 0.00 0.00 0.00 70 1016.2
20260901151504 86 192 2.0 5.0 0.00 0.00 0.00 73 1016.2
20260901151004 85 203 4.0 8.0 0.00 0.00 0.00 73 1016.2
20260901150525 86 225 3.0 8.0 0.00 0.00 0.00 73 1016.2
20260901150004 85 275 2.0 5.0 0.00 0.00 0.00 73 1016.3
20260901145504 85 259 2.0 5.0 0.00 0.00 0.00 73 1016.2
20260901145025 85 264 2.0 5.0 0.00 0.00 0.00 74 1016.4
20260901144504 84 272 2.0 5.0 0.00 0.00 0.00 76 1016.3
20260901144004 84 231 3.0 5.0 0.00 0.00 0.00 76 1016.4
20260901143504 84 213 2.0 5.0 0.00 0.00 0.00 77 1016.3
20260901143004 84 227 2.0 5.0 0.00 0.00 0.00 77 1016.3
20260901142525 84 199 2.0 5.0 0.00 0.00 0.00 78 1016.4
20260901142004 83 143 2.0 5.0 0.00 0.00 0.00 79 1016.3
20260901141507 83 187 2.0 4.0 0.00 0.00 0.00 81 1016.2
20260901141004 82 201 2.0 4.0 0.00 0.00 0.00 82 1016.2
20260901140504 82 193 2.0 5.0 0.00 0.00 0.00 82 1016.2
20260901140005 82 191 1.0 5.0 0.00 0.00 0.00 83 1016.4
20260901135504 82 239 1.0 4.0 0.00 0.00 0.00 85 1016.3
20260901135025 81 248 1.0 6.0 0.00 0.00 0.00 86 1016.4
20260901134504 81 242 2.0 6.0 0.00 0.00 0.00 86 1016.3
20260901134005 81 231 1.0 4.0 0.00 0.00 0.00 86 1016.3
20260901133506 81 262 0.0 2.0 0.00 0.00 0.00 87 1016.3
20260901133026 80 289 0.0 2.0 0.00 0.00 0.00 88 1016.2
20260901132504 80 298 0.0 2.0 0.00 0.00 0.00 89 1016.3
20260901132026 79 0 0.0 0.0 0.00 0.00 0.00 89 1016.1
20260901131505 79 0 0.0 0.0 0.00 0.00 0.00 90 1016.2
20260901131025 78 0 0.0 0.0 0.00 0.00 0.00 91 1016.1
20260901130503 78 0 0.0 0.0 0.00 0.00 0.00 91 1016.0
20260901130004 77 298 0.0 1.0 0.00 0.00 0.00 90 1015.8
20260901125504 77 298 0.0 1.0 0.00 0.00 0.00 91 1015.7
20260901125004 77 298 0.0 1.0 0.00 0.00 0.00 92 1015.7
20260901124505 76 0 0.0 0.0 0.00 0.00 0.00 92 1015.7
20260901124004 76 0 0.0 0.0 0.00 0.00 0.00 91 1015.7
20260901123504 76 0 0.0 0.0 0.00 0.00 0.00 91 1015.6
20260901123004 76 0 0.0 0.0 0.00 0.00 0.00 90 1015.6
20260901122504 76 0 0.0 0.0 0.00 0.00 0.00 90 1015.6
20260901122004 76 0 0.0 0.0 0.00 0.00 0.00 90 1015.6
20260901121504 76 0 0.0 0.0 0.00 0.00 0.00 90 1015.5
20260901121004 76 0 0.0 0.0 0.00 0.00 0.00 90 1015.5
20260901120525 76 0 0.0 0.0 0.00 0.00 0.00 90 1015.6
20260901120004 76 0 0.0 0.0 0.00 0.00 0.00 89 1015.6
20260901115504 76 0 0.0 0.0 0.00 0.00 0.00 89 1015.5
20260901115004 76 0 0.0 0.0 0.00 0.00 0.00 89 1015.5
20260901114504 76 0 0.0 0.0 0.00 0.00 0.00 89 1015.6
20260901114004 76 0 0.0 0.0 0.00 0.00 0.00 90 1015.5
20260901113525 77 0 0.0 0.0 0.00 0.00 0.00 90 1015.5
20260901113004 77 0 0.0 0.0 0.00 0.00 0.00 90 1015.4
20260901112525 77 0 0.0 0.0 0.00 0.00 0.00 90 1015.4
20260901112004 77 0 0.0 0.0 0.00 0.00 0.00 89 1015.3
20260901111504 77 0 0.0 0.0 0.00 0.00 0.00 89 1015.3
20260901111025 77 298 0.0 2.0 0.00 0.00 0.00 89 1015.3
20260901110504 77 298 0.0 2.0 0.00 0.00 0.00 89 1015.3
20260901110004 77 276 0.0 1.0 0.00 0.00 0.00 89 1015.3
20260901105504 77 266 0.0 2.0 0.00 0.00 0.00 89 1015.4
20260901105004 77 258 0.0 2.0 0.00 0.00 0.00 89 1015.4
20260901104504 77 206 0.0 1.0 0.00 0.00 0.00 89 1015.5
20260901104004 77 0 0.0 0.0 0.00 0.00 0.00 89 1015.5
20260901103525 77 0 0.0 0.0 0.00 0.00 0.00 89 1015.6
20260901103004 78 0 0.0 0.0 0.00 0.00 0.00 89 1015.5
20260901102504 78 206 0.0 1.0 0.00 0.00 0.00 89 1015.5
20260901102004 78 206 0.0 1.0 0.00 0.00 0.00 89 1015.5
20260901101504 78 0 0.0 0.0 0.00 0.00 0.00 88 1015.4
20260901101004 78 206 0.0 1.0 0.00 0.00 0.00 89 1015.4
20260901100504 78 206 0.0 2.0 0.00 0.00 0.00 89 1015.3
20260901100004 78 206 0.0 2.0 0.00 0.00 0.00 89 1015.5
20260901095504 78 206 0.0 1.0 0.00 0.00 0.00 88 1015.5
20260901095004 78 0 0.0 0.0 0.00 0.00 0.00 88 1015.5
20260901094504 77 0 0.0 0.0 0.00 0.00 0.00 88 1015.5
20260901094004 77 0 0.0 0.0 0.00 0.00 0.00 87 1015.4
20260901093504 78 0 0.0 0.0 0.00 0.00 0.00 87 1015.4
20260901093004 78 0 0.0 0.0 0.00 0.00 0.00 87 1015.4
20260901092525 78 0 0.0 0.0 0.00 0.00 0.00 88 1015.4
20260901092004 78 0 0.0 0.0 0.00 0.00 0.00 88 1015.4
20260901091504 78 206 0.0 1.0 0.00 0.00 0.00 88 1015.4
20260901091004 78 206 0.0 1.0 0.00 0.00 0.00 88 1015.5
20260901090504 78 0 0.0 0.0 0.00 0.00 0.00 88 1015.4
20260901090004 78 0 0.0 0.0 0.00 0.00 0.00 88 1015.5
20260901085524 78 0 0.0 0.0 0.00 0.00 0.00 88 1015.4
20260901085004 78 0 0.0 0.0 0.00 0.00 0.00 88 1015.5
20260901084525 78 0 0.0 0.0 0.00 0.00 0.00 88 1015.5
20260901084004 78 206 0.0 1.0 0.00 0.00 0.00 88 1015.5
20260901083504 78 206 0.0 1.0 0.00 0.00 0.00 87 1015.5
20260901083004 78 206 0.0 1.0 0.00 0.00 0.00 87 1015.5
20260901082504 78 0 0.0 0.0 0.00 0.00 0.00 87 1015.5
20260901082004 78 0 0.0 0.0 0.00 0.00 0.00 86 1015.5
20260901081503 79 0 0.0 0.0 0.00 0.00 0.00 86 1015.5
20260901081004 79 0 0.0 0.0 0.00 0.00 0.00 86 1015.6
20260901080504 79 0 0.0 0.0 0.00 0.00 0.00 85 1015.5
20260901080004 79 0 0.0 0.0 0.00 0.00 0.00 85 1015.5
20260901075525 79 206 0.0 1.0 0.00 0.00 0.00 85 1015.4
20260901075004 79 206 0.0 1.0 0.00 0.00 0.00 85 1015.4
20260901074504 79 206 0.0 1.0 0.00 0.00 0.00 85 1015.4
20260901074004 79 206 0.0 3.0 0.00 0.00 0.00 85 1015.5
20260901073504 79 206 1.0 3.0 0.00 0.00 0.00 85 1015.4
20260901073004 79 202 2.0 3.0 0.00 0.00 0.00 84 1015.4
20260901072504 79 193 2.0 5.0 0.00 0.00 0.00 84 1015.3
20260901072004 80 190 3.0 8.0 0.00 0.00 0.00 84 1015.5
20260901071504 80 186 3.0 8.0 0.00 0.00 0.00 83 1015.4
20260901071025 80 179 3.0 6.0 0.00 0.00 0.00 83 1015.5
20260901070504 80 186 3.0 6.0 0.00 0.00 0.00 82 1015.5
20260901070004 80 190 3.0 7.0 0.00 0.00 0.00 82 1015.4
20260901065504 80 189 4.0 7.0 0.00 0.00 0.00 82 1015.4
20260901065004 80 191 3.0 6.0 0.00 0.00 0.00 81 1015.4
20260901064504 80 186 3.0 6.0 0.00 0.00 0.00 80 1015.4
20260901064004 80 176 3.0 6.0 0.00 0.00 0.00 80 1015.4
20260901063504 80 160 2.0 5.0 0.00 0.00 0.00 79 1015.4
20260901063004 80 154 3.0 6.0 0.00 0.00 0.00 79 1015.5
20260901062525 80 157 3.0 6.0 0.00 0.00 0.00 78 1015.5
20260901062004 81 161 2.0 5.0 0.00 0.00 0.00 77 1015.3
20260901061504 81 151 2.0 4.0 0.00 0.00 0.00 77 1015.3
20260901061004 81 145 3.0 5.0 0.00 0.00 0.00 76 1015.3
20260901060503 81 147 3.0 5.0 0.00 0.00 0.00 76 1015.3
20260901060004 81 146 2.0 5.0 0.00 0.00 0.00 75 1015.3
20260901055503 81 147 2.0 5.0 0.00 0.00 0.00 74 1015.1
20260901055004 82 154 2.0 5.0 0.00 0.00 0.00 74 1015.2
20260901054504 82 161 2.0 5.0 0.00 0.00 0.00 74 1015.2
20260901054004 82 167 2.0 6.0 0.00 0.00 0.00 73 1015.2
20260901053504 82 169 3.0 6.0 0.00 0.00 0.00 73 1015.1
20260901053003 82 173 2.0 5.0 0.00 0.00 0.00 73 1015.1
20260901052525 82 170 3.0 6.0 0.00 0.00 0.00 72 1015.0
20260901052024 83 161 4.0 8.0 0.00 0.00 0.00 72 1015.0
20260901051524 83 151 4.0 8.0 0.00 0.00 0.00 71 1015.0
20260901051004 83 143 4.0 9.0 0.00 0.00 0.00 71 1014.9
20260901050503 83 147 4.0 8.0 0.00 0.00 0.00 71 1014.8
20260901050004 83 147 3.0 8.0 0.00 0.00 0.00 70 1014.8
20260901045504 84 137 3.0 8.0 0.00 0.00 0.00 69 1014.8
20260901045004 84 136 3.0 7.0 0.00 0.00 0.00 69 1014.8
20260901044506 84 149 4.0 9.0 0.00 0.00 0.00 68 1014.8
20260901044003 84 150 4.0 9.0 0.00 0.00 0.00 68 1014.8
20260901043504 84 147 4.0 9.0 0.00 0.00 0.00 68 1014.9
20260901043025 84 147 4.0 9.0 0.00 0.00 0.00 67 1014.9
20260901042503 85 147 3.0 8.0 0.00 0.00 0.00 66 1014.8
20260901042024 85 150 4.0 9.0 0.00 0.00 0.00 66 1014.8
20260901041504 85 149 4.0 9.0 0.00 0.00 0.00 65 1014.8
20260901041004 85 144 3.0 8.0 0.00 0.00 0.00 65 1014.8
20260901040504 85 146 4.0 9.0 0.00 0.00 0.00 64 1014.8
20260901040025 86 154 4.0 10.0 0.00 0.00 0.00 63 1014.8
20260901035503 86 157 5.0 10.0 0.00 0.00 0.00 63 1014.6
20260901035003 86 157 6.0 11.0 0.00 0.00 0.00 62 1014.3
20260901034504 86 155 6.0 11.0 0.00 0.00 0.00 62 1014.4
20260901034003 86 155 6.0 12.0 0.00 0.00 0.00 61 1014.6
20260901033504 87 156 6.0 12.0 0.00 0.00 0.00 61 1014.5
20260901033003 87 154 7.0 12.0 0.00 0.00 0.00 60 1014.4
20260901032525 87 154 7.0 12.0 0.00 0.00 0.00 60 1014.5
20260901032003 87 156 7.0 12.0 0.00 0.00 0.00 59 1014.4
20260901031504 88 152 7.0 12.0 0.00 0.00 0.00 59 1014.4
20260901031004 88 148 7.0 12.0 0.00 0.00 0.00 58 1014.2
20260901030504 88 147 7.0 13.0 0.00 0.00 0.00 58 1014.1
20260901030004 88 147 6.0 13.0 0.00 0.00 0.00 58 1014.1
20260901025504 88 146 6.0 13.0 0.00 0.00 0.00 58 1014.0
20260901025025 88 145 6.0 12.0 0.00 0.00 0.00 57 1013.8
20260901024504 89 153 5.0 8.0 0.00 0.00 0.00 58 1013.7
20260901024003 89 155 5.0 8.0 0.00 0.00 0.00 58 1013.6
20260901023504 89 150 5.0 9.0 0.00 0.00 0.00 57 1013.5
20260901023004 89 150 5.0 9.0 0.00 0.00 0.00 57 1013.5
20260901022504 89 152 4.0 9.0 0.00 0.00 0.00 57 1013.4
20260901022004 89 151 4.0 6.0 0.00 0.00 0.00 57 1013.4
20260901021503 90 151 4.0 8.0 0.00 0.00 0.00 56 1013.2
20260901021025 90 151 5.0 8.0 0.00 0.00 0.00 56 1013.2
20260901020504 90 148 4.0 8.0 0.00 0.00 0.00 55 1013.2
20260901020004 90 148 4.0 8.0 0.00 0.00 0.00 55 1013.1
20260901015503 90 147 4.0 8.0 0.00 0.00 0.00 55 1013.1
20260901015004 91 142 5.0 9.0 0.00 0.00 0.00 54 1013.0
20260901014503 91 141 4.0 9.0 0.00 0.00 0.00 54 1012.9
20260901014003 91 142 4.0 9.0 0.00 0.00 0.00 54 1012.8
20260901013505 91 143 4.0 9.0 0.00 0.00 0.00 53 1012.6
20260901013025 91 142 4.0 9.0 0.00 0.00 0.00 53 1012.6
20260901012505 92 143 5.0 9.0 0.00 0.00 0.00 53 1012.6
20260901012005 92 141 4.0 9.0 0.00 0.00 0.00 53 1012.6
20260901011505 92 132 3.0 8.0 0.00 0.00 0.00 53 1012.5
20260901011005 92 133 4.0 8.0 0.00 0.00 0.00 53 1012.5
20260901010505 92 132 5.0 9.0 0.00 0.00 0.00 52 1012.5
20260901010006 92 126 4.0 9.0 0.00 0.00 0.00 52 1012.4
20260901005505 93 125 4.0 9.0 0.00 0.00 0.00 52 1012.3
20260901005005 93 122 4.0 9.0 0.00 0.00 0.00 52 1012.3
20260901004506 93 114 5.0 10.0 0.00 0.00 0.00 51 1012.3
20260901004005 93 123 6.0 12.0 0.00 0.00 0.00 51 1012.2
20260901003505 94 129 6.0 12.0 0.00 0.00 0.00 50 1012.2
20260901003005 94 125 5.0 14.0 0.00 0.00 0.00 50 1012.2
20260901002505 94 119 5.0 14.0 0.00 0.00 0.00 49 1012.1
20260901002026 94 114 5.0 11.0 0.00 0.00 0.00 48 1012.2
20260901001505 95 106 6.0 15.0 0.00 0.00 0.00 48 1012.1
20260901001005 95 101 7.0 15.0 0.00 0.00 0.00 48 1011.9
20260901000505 96 100 6.0 12.0 0.00 0.00 0.00 46 1011.9
20260901000005 97 100 4.0 10.0 0.00 0.00 0.00 42 1011.9
20260831235505 97 96 3.0 6.0 0.00 0.00 0.00 38 1011.6
20260831235006 98 92 3.0 7.0 0.00 0.00 0.00 37 1011.6
20260831234505 98 112 3.0 7.0 0.00 0.00 0.00 36 1011.6
20260831234026 98 124 4.0 9.0 0.00 0.00 0.00 37 1011.6
20260831233505 98 93 6.0 11.0 0.00 0.00 0.00 37 1011.6
20260831233005 98 79 7.0 13.0 0.00 0.00 0.00 37 1011.6
20260831232505 98 75 5.0 13.0 0.00 0.00 0.00 37 1011.7
20260831232026 98 74 3.0 9.0 0.00 0.00 0.00 37 1011.6
20260831231505 98 83 4.0 8.0 0.00 0.00 0.00 39 1011.6
20260831231006 98 83 5.0 8.0 0.00 0.00 0.00 38 1011.7
20260831230505 98 84 6.0 12.0 0.00 0.00 0.00 38 1011.8
20260831230005 98 82 7.0 12.0 0.00 0.00 0.00 38 1011.8
20260831225527 99 72 6.0 14.0 0.00 0.00 0.00 38 1011.8
20260831225005 99 65 5.0 14.0 0.00 0.00 0.00 38 1011.8
20260831224505 99 72 4.0 10.0 0.00 0.00 0.00 38 1011.8
20260831224026 98 75 4.0 10.0 0.00 0.00 0.00 39 1011.9
20260831223505 98 80 4.0 10.0 0.00 0.00 0.00 39 1011.9
20260831223005 98 82 6.0 11.0 0.00 0.00 0.00 39 1011.9
20260831222505 98 89 5.0 11.0 0.00 0.00 0.00 37 1012.0
20260831222005 100 93 4.0 13.0 0.00 0.00 0.00 38 1012.1
20260831221505 99 84 5.0 13.0 0.00 0.00 0.00 38 1012.1
20260831221004 99 83 3.0 8.0 0.00 0.00 0.00 39 1012.1
20260831220505 98 133 2.0 5.0 0.00 0.00 0.00 39 1012.1
20260831220005 98 145 3.0 6.0 0.00 0.00 0.00 40 1012.1
20260831215505 98 144 4.0 9.0 0.00 0.00 0.00 39 1012.2
20260831215005 99 128 4.0 9.0 0.00 0.00 0.00 40 1012.4
20260831214505 100 91 3.0 8.0 0.00 0.00 0.00 39 1012.4
20260831214005 99 64 4.0 9.0 0.00 0.00 0.00 40 1012.5
20260831213505 98 72 4.0 9.0 0.00 0.00 0.00 40 1012.4
20260831213005 98 84 4.0 8.0 0.00 0.00 0.00 40 1012.5
20260831212505 98 108 4.0 8.0 0.00 0.00 0.00 40 1012.7
20260831212006 100 113 5.0 13.0 0.00 0.00 0.00 39 1012.7
20260831211504 100 131 6.0 13.0 0.00 0.00 0.00 38 1012.7
20260831211005 100 175 6.0 13.0 0.00 0.00 0.00 39 1012.7
20260831210526 99 178 5.0 10.0 0.00 0.00 0.00 39 1012.8
20260831210005 99 164 4.0 10.0 0.00 0.00 0.00 39 1013.0
20260831205505 99 92 3.0 8.0 0.00 0.00 0.00 40 1013.2
20260831205005 98 76 3.0 8.0 0.00 0.00 0.00 41 1013.2
20260831204505 98 114 4.0 10.0 0.00 0.00 0.00 40 1013.2
20260831204005 98 120 5.0 10.0 0.00 0.00 0.00 41 1013.5
20260831203506 98 95 5.0 10.0 0.00 0.00 0.00 41 1013.5
20260831203005 99 96 6.0 13.0 0.00 0.00 0.00 41 1013.6
20260831202505 98 138 5.0 13.0 0.00 0.00 0.00 43 1013.8
20260831202005 98 169 5.0 9.0 0.00 0.00 0.00 43 1013.9
20260831201504 97 152 4.0 9.0 0.00 0.00 0.00 43 1013.9
20260831201005 96 101 4.0 10.0 0.00 0.00 0.00 44 1014.1
20260831200506 97 83 4.0 10.0 0.00 0.00 0.00 44 1014.2
20260831200006 98 104 3.0 8.0 0.00 0.00 0.00 43 1014.3
20260831195505 98 106 4.0 11.0 0.00 0.00 0.00 43 1014.3
20260831195027 99 103 5.0 13.0 0.00 0.00 0.00 43 1014.4
20260831194505 98 131 6.0 13.0 0.00 0.00 0.00 44 1014.4
20260831194006 98 129 5.0 11.0 0.00 0.00 0.00 44 1014.5
20260831193526 98 89 5.0 11.0 0.00 0.00 0.00 43 1014.5
20260831193005 98 98 5.0 11.0 0.00 0.00 0.00 43 1014.5
20260831192526 97 163 3.0 9.0 0.00 0.00 0.00 44 1014.7
20260831192004 97 124 3.0 9.0 0.00 0.00 0.00 44 1014.7
20260831191526 96 88 3.0 8.0 0.00 0.00 0.00 45 1014.9
20260831191005 96 167 3.0 8.0 0.00 0.00 0.00 45 1015.0
20260831190505 97 187 3.0 10.0 0.00 0.00 0.00 45 1015.0
20260831190005 97 174 3.0 10.0 0.00 0.00 0.00 43 1015.1
20260831185505 96 179 5.0 8.0 0.00 0.00 0.00 45 1015.1
20260831185005 96 175 5.0 11.0 0.00 0.00 0.00 46 1015.2
20260831184505 97 138 4.0 11.0 0.00 0.00 0.00 44 1015.2
20260831184005 96 100 3.0 11.0 0.00 0.00 0.00 47 1015.2
20260831183526 96 146 4.0 8.0 0.00 0.00 0.00 47 1015.2
20260831183006 96 135 4.0 8.0 0.00 0.00 0.00 48 1015.3
20260831182505 95 112 5.0 13.0 0.00 0.00 0.00 48 1015.3
20260831182005 94 108 4.0 13.0 0.00 0.00 0.00 48 1015.3
20260831181505 94 115 3.0 11.0 0.00 0.00 0.00 47 1015.5
20260831181005 94 122 4.0 11.0 0.00 0.00 0.00 49 1015.4
20260831180505 95 134 4.0 10.0 0.00 0.00 0.00 50 1015.5
20260831180005 94 106 5.0 10.0 0.00 0.00 0.00 50 1015.7
20260831175506 94 92 4.0 10.0 0.00 0.00 0.00 50 1015.8
20260831175026 94 87 4.0 11.0 0.00 0.00 0.00 50 1015.8
20260831174505 93 82 5.0 11.0 0.00 0.00 0.00 54 1015.9
20260831174005 93 85 6.0 13.0 0.00 0.00 0.00 53 1016.0
20260831173504 94 91 5.0 13.0 0.00 0.00 0.00 51 1016.2
20260831173005 93 100 3.0 8.0 0.00 0.00 0.00 53 1016.1
20260831172506 93 96 3.0 8.0 0.00 0.00 0.00 53 1016.3